This is the latest recevied weather packets stored in our database for station/object AD0YN. If no packets are shown the sender has not sent any weather packets the latest 10 day(s).
| Time | Temp. | Humidity | Pressure | Rain* | Wind** | Luminosity | Snow |
|---|---|---|---|---|---|---|---|
| 1787767234 | 31.67° C | 55% | 1016.6 hPa | 0 mm | - | 849 W/m² | - |
| 1787766932 | 31.11° C | 56% | 1017.1 hPa | 0 mm | - | 831 W/m² | - |
| 1787766628 | 31.11° C | 53% | 1017.1 hPa | 0 mm | - | 827 W/m² | - |
| 1787766327 | 31.11° C | 53% | 1016.9 hPa | 0 mm | - | 819 W/m² | - |
| 1787766027 | 31.11° C | 52% | 1016.9 hPa | 0 mm | - | 812 W/m² | - |
| 1787765724 | 30.56° C | 53% | 1016.8 hPa | 0 mm | - | 805 W/m² | - |
| 1787765420 | 31.11° C | 54% | 1017 hPa | 0 mm | - | 799 W/m² | - |
| 1787765119 | 30.56° C | 57% | 1017.1 hPa | 0 mm | - | 792 W/m² | - |
| 1787764814 | 30.56° C | 60% | 1017.2 hPa | 0 mm | - | 785 W/m² | - |
| 1787764509 | 30.56° C | 59% | 1017.1 hPa | 0 mm | - | 779 W/m² | - |
| 1787764204 | 30.56° C | 63% | 1016.9 hPa | 0 mm | - | 773 W/m² | - |
| 1787763900 | 30.56° C | 62% | 1017 hPa | 0 mm | - | 762 W/m² | - |
| 1787763598 | 30.56° C | 63% | 1017.1 hPa | 0 mm | - | 754 W/m² | - |
| 1787763290 | 30.56° C | 57% | 1017 hPa | 0 mm | - | 743 W/m² | - |
| 1787762989 | 30.56° C | 68% | 1017.2 hPa | 0 mm | - | 731 W/m² | - |
| 1787762689 | 30.56° C | 64% | 1016.9 hPa | 0 mm | - | 729 W/m² | - |
| 1787762388 | 30° C | 66% | 1017 hPa | 0 mm | - | 727 W/m² | - |
| 1787762086 | 30° C | 72% | 1017 hPa | 0 mm | - | 717 W/m² | - |
| 1787761781 | 30° C | 72% | 1016.9 hPa | 0 mm | - | 696 W/m² | - |
| 1787761476 | 30° C | 67% | 1017 hPa | 0 mm | - | 677 W/m² | - |
| 1787761171 | 30° C | 72% | 1016.8 hPa | 0 mm | - | 678 W/m² | - |
| 1787760871 | 30° C | 69% | 1016.7 hPa | 0 mm | - | 657 W/m² | - |
| 1787760569 | 30° C | 70% | 1016.6 hPa | 0 mm | - | 650 W/m² | - |
| 1787760263 | 29.44° C | 71% | 1016.6 hPa | 0 mm | - | 639 W/m² | - |
| 1787759960 | 28.89° C | 75% | 1016.6 hPa | 0 mm | - | 623 W/m² | - |
* Rain latest hour (hover to see other rain measurements)
** Current wind speed in m/s (hover to see current wind gust speed)